User: anonymous   Login
Location: Lombard
(41.8800°N, 88.0080°W)
Time: 19:18:54
(UTC-05:00)
Language:

A-11 Canister half - Orbit

View from above orbital plane
View from above orbital plane
View from above satellite
View from above satellite

Ground track
Ground track

The orbit data is extracted from the following two-line orbital elements,

1    51U 60009C   24103.83252551  .00000029  00000-0  11023-2 0  9992
2    51  47.2152 350.3717 0108915 351.8048   8.0961 12.18325132834195
Epoch (UTC): 12 April 2024 19:58:50
Eccentricity: 0.0108915
inclination: 47.2152°
perigee height: 1513 km
apogee height: 1687 km
right ascension of ascending node: 350.3717°
argument of perigee: 351.8048°
revolutions per day: 12.18325132
mean anomaly at epoch: 8.0961°
orbit number at epoch: 83419

The dashed part of the orbit path shows where the satellite is in the earth's shadow,  

DLR